Home   Weather   Dushanbe   Past weeks

Flag for Tajikistan Past Weather in Dushanbe, Tajikistan — Yesterday and Last 2 Weeks

Now
57 °F

Scattered clouds.


Feels Like: 56 °F
Forecast: 35 / 56 °F
Wind: 6 mph from South

Location: Dushanbe Airport

Current Time: Feb 25, 2017 at 2:12:18 pm

Latest Report: Feb 25, 2017 at 1:30 pm


Visibility: N/A

Pressure: 30.39 "Hg (27.53 "Hg at 832m altitude)

Humidity: 39%

Dew Point: 32 °F

Location of DushanbeLocation

Past Weather in Dushanbe — Graph

°F

Dushanbe Temperature Yesterday

Maximum temperature yesterday: 55 °F (at 11:30 am)
Minimum temperature yesterday: 37 °F (at 4:30 am)
Average temperature yesterday: 46 °F

High & Low Weather Summary for the Past Weeks

 TemperatureHumidityPressure
High64 °F (Feb 17, 1:00 pm)100% (Feb 12, 1:00 am)30.63 "Hg (Feb 12, 1:00 am)
Low14 °F (Feb 21, 6:00 am)24% (Feb 24, 11:30 am)29.77 "Hg (Feb 18, 3:00 am)
Average41 °F74%30.22 "Hg
* Reported Feb 10 1:00 pm — Feb 25 1:00 pm, Dushanbe, Weather by CustomWeather, © 2017

Note: Actual official high and low records may vary slightly from our data, if they occured in-between our weather recording intervals... More about our weather records

Advertising

Dushanbe Weather History for the Previous 24 Hours

Scroll right to see more
 ConditionsComfort  
Time TempWeatherWind HumidityBarometerVisibility
1:00 pm
Sat, Feb 25
55 °FPassing clouds.3 mph41%30.39 "HgN/A
12:30 pm55 °FScattered clouds.6 mph44%30.42 "HgN/A
12:00 pm55 °FScattered clouds.3 mph44%30.42 "HgN/A
11:30 am55 °FBroken clouds.3 mph44%30.42 "HgN/A
11:00 am54 °FPartly sunny.6 mph41%30.42 "HgN/A
10:30 am54 °FPartly sunny.8 mph44%30.42 "HgN/A
10:00 am52 °FOvercast.8 mph47%30.42 "HgN/A
9:30 am48 °FMostly cloudy.6 mph54%30.39 "Hg4 mi
9:00 am46 °FOvercast.6 mph57%30.39 "Hg2 mi
8:30 am41 °FMore clouds than sun.3 mph70%30.39 "Hg2 mi
8:00 am41 °FOvercast.No wind66%30.39 "Hg4 mi
7:30 am41 °FMostly cloudy.3 mph61%30.36 "HgN/A
7:00 am41 °FOvercast.3 mph61%30.36 "HgN/A
6:30 am39 °FPassing clouds.No wind61%30.33 "HgN/A
6:00 am37 °FOvercast.No wind65%30.33 "HgN/A
5:30 am39 °FOvercast.3 mph65%30.33 "HgN/A
5:00 am37 °FPassing clouds.No wind70%30.33 "HgN/A
4:30 am37 °FPassing clouds.No wind70%30.30 "Hg6 mi
4:00 am39 °FOvercast.No wind65%30.30 "Hg6 mi
3:30 am37 °FOvercast.1 mph70%30.30 "Hg4 mi
3:00 am39 °FOvercast.3 mph65%30.30 "HgN/A
2:30 am37 °FOvercast.1 mph70%30.30 "Hg6 mi
2:00 am37 °FOvercast.No wind65%30.30 "Hg5 mi
1:30 am39 °FOvercast.3 mph65%30.30 "Hg6 mi
1:00 am41 °FPassing clouds.1 mph57%30.27 "HgN/A
12:30 am39 °FOvercast.1 mph61%30.27 "HgN/A
12:00 am43 °FPassing clouds.1 mph49%30.27 "HgN/A
11:30 pm
Fri, Feb 24
43 °FPassing clouds.1 mph46%30.27 "HgN/A
11:00 pm43 °FPassing clouds.1 mph46%30.24 "HgN/A
10:30 pm39 °FPassing clouds.1 mph52%30.24 "HgN/A
10:00 pm45 °FOvercast.6 mph39%30.21 "HgN/A
9:30 pm45 °FOvercast.6 mph39%30.21 "HgN/A
9:00 pm46 °FOvercast.6 mph37%30.21 "Hg5 mi
8:30 pm46 °FPassing clouds.6 mph40%30.18 "Hg6 mi
8:00 pm46 °FOvercast.3 mph40%30.18 "Hg6 mi
7:30 pm46 °FPassing clouds.3 mph40%30.15 "Hg5 mi
7:00 pm43 °FPassing clouds.8 mph49%30.15 "Hg4 mi
6:30 pm46 °FPassing clouds.8 mph43%30.12 "Hg5 mi
6:00 pm48 °FPartly sunny.10 mph40%30.12 "HgN/A
5:30 pm50 °FPartly sunny.8 mph37%30.09 "HgN/A
5:00 pm52 °FPartly sunny.8 mph30%30.09 "HgN/A
4:30 pm52 °FOvercast.8 mph32%30.09 "HgN/A
4:00 pm54 °FOvercast.8 mph28%30.09 "HgN/A
3:30 pm54 °FPartly sunny.10 mph28%30.09 "HgN/A
3:00 pm54 °FScattered clouds.13 mph26%30.09 "HgN/A
2:30 pm54 °FPartly sunny.13 mph28%30.09 "HgN/A
2:00 pm54 °FPartly sunny.15 mph28%30.09 "HgN/A
Weather by CustomWeather, © 2017

See weather overviewHow to use our weather pages